Time,TemperatureF,DewpointF,PressureIn,WindDirection,WindDirectionDegrees,WindSpeedMPH,WindSpeedGustMPH,Humidity,HourlyPrecipIn,Conditions,Clouds,dailyrainin,SoftwareType,DateUTC
2013-06-17 05:00:00,53.0,53.0,29.94,North,-999,-999.0,-999.0,100,-99.99,,,-99.99,,2013-06-17 04:00:00,
2013-06-17 05:42:00,53.0,53.0,29.94,North,-999,-999.0,-999.0,100,-99.99,,,-99.99,,2013-06-17 04:42:00,
2013-06-17 05:53:00,53.0,53.0,29.94,North,-999,-999.0,-999.0,100,-99.99,,,-99.99,,2013-06-17 04:53:00,
2013-06-17 06:00:00,54.0,54.0,29.97,North,-999,-999.0,-999.0,100,-99.99,,,-99.99,,2013-06-17 05:00:00,
2013-06-17 06:43:00,54.0,54.0,29.97,North,-999,-999.0,-999.0,100,-99.99,,,-99.99,,2013-06-17 05:43:00,
2013-06-17 06:53:00,54.0,54.0,29.97,North,-999,-999.0,-999.0,100,-99.99,,,-99.99,,2013-06-17 05:53:00,
2013-06-17 07:00:00,54.0,54.0,29.99,North,-999,-999.0,-999.0,100,-99.99,,,-99.99,,2013-06-17 06:00:00,
2013-06-17 07:43:00,54.0,54.0,29.99,North,-999,-999.0,-999.0,100,-99.99,,,-99.99,,2013-06-17 06:43:00,
2013-06-17 07:53:00,54.0,54.0,29.99,North,-999,-999.0,-999.0,100,-99.99,,,-99.99,,2013-06-17 06:53:00,
2013-06-17 08:00:00,56.0,56.0,30.00,North,-999,-999.0,-999.0,100,-99.99,,,-99.99,,2013-06-17 07:00:00,
2013-06-17 08:42:00,56.0,56.0,30.00,North,-999,-999.0,-999.0,100,-99.99,,,-99.99,,2013-06-17 07:42:00,
2013-06-17 08:52:00,56.0,56.0,30.00,North,-999,-999.0,-999.0,100,-99.99,,,-99.99,,2013-06-17 07:52:00,
2013-06-17 09:00:00,56.0,56.0,30.01,North,-999,-999.0,-999.0,99,-99.99,,,-99.99,,2013-06-17 08:00:00,
2013-06-17 09:43:00,56.0,56.0,30.01,North,-999,-999.0,-999.0,99,-99.99,,,-99.99,,2013-06-17 08:43:00,
2013-06-17 09:52:00,56.0,56.0,30.01,North,-999,-999.0,-999.0,99,-99.99,,,-99.99,,2013-06-17 08:52:00,
2013-06-17 10:00:00,54.0,54.0,30.02,North,-999,-999.0,-999.0,100,-99.99,,,-99.99,,2013-06-17 09:00:00,
2013-06-17 10:43:00,54.0,54.0,30.02,North,-999,-999.0,-999.0,100,-99.99,,,-99.99,,2013-06-17 09:43:00,
2013-06-17 10:52:00,54.0,54.0,30.02,North,-999,-999.0,-999.0,100,-99.99,,,-99.99,,2013-06-17 09:52:00,
2013-06-17 11:00:00,53.0,53.0,30.02,North,-999,-999.0,-999.0,100,-99.99,,,-99.99,,2013-06-17 10:00:00,
2013-06-17 11:42:00,53.0,53.0,30.02,North,-999,-999.0,-999.0,100,-99.99,,,-99.99,,2013-06-17 10:42:00,
2013-06-17 11:53:00,53.0,53.0,30.02,North,-999,-999.0,-999.0,100,-99.99,,,-99.99,,2013-06-17 10:53:00,
2013-06-17 12:00:00,55.0,55.0,30.04,North,-999,-999.0,-999.0,100,-99.99,,,-99.99,,2013-06-17 11:00:00,
2013-06-17 12:43:00,55.0,55.0,30.04,North,-999,-999.0,-999.0,100,-99.99,,,-99.99,,2013-06-17 11:43:00,
2013-06-17 12:53:00,55.0,55.0,30.04,North,-999,-999.0,-999.0,100,-99.99,,,-99.99,,2013-06-17 11:53:00,
2013-06-17 13:00:00,56.0,56.0,30.03,North,-999,-999.0,-999.0,99,-99.99,,,-99.99,,2013-06-17 12:00:00,
2013-06-17 13:43:00,56.0,56.0,30.03,North,-999,-999.0,-999.0,99,-99.99,,,-99.99,,2013-06-17 12:43:00,
2013-06-17 13:52:00,56.0,56.0,30.03,North,-999,-999.0,-999.0,99,-99.99,,,-99.99,,2013-06-17 12:52:00,
2013-06-17 14:00:00,57.0,56.0,30.05,North,-999,-999.0,-999.0,94,-99.99,,,-99.99,,2013-06-17 13:00:00,
2013-06-17 14:43:00,57.0,56.0,30.05,North,-999,-999.0,-999.0,94,-99.99,,,-99.99,,2013-06-17 13:43:00,
2013-06-17 14:52:00,57.0,56.0,30.05,North,-999,-999.0,-999.0,94,-99.99,,,-99.99,,2013-06-17 13:52:00,
2013-06-17 17:00:00,54.0,54.0,30.00,North,-999,-999.0,-999.0,98,-99.99,,,-99.99,,2013-06-17 16:00:00,
2013-06-17 17:43:00,54.0,54.0,30.00,North,-999,-999.0,-999.0,98,-99.99,,,-99.99,,2013-06-17 16:43:00,
2013-06-17 17:53:00,54.0,54.0,30.00,North,-999,-999.0,-999.0,98,-99.99,,,-99.99,,2013-06-17 16:53:00,
2013-06-17 18:00:00,56.0,54.0,29.98,North,-999,-999.0,-999.0,92,-99.99,,,-99.99,,2013-06-17 17:00:00,
2013-06-17 18:43:00,56.0,54.0,29.98,North,-999,-999.0,-999.0,92,-99.99,,,-99.99,,2013-06-17 17:43:00,
2013-06-17 18:52:00,56.0,54.0,29.98,North,-999,-999.0,-999.0,92,-99.99,,,-99.99,,2013-06-17 17:52:00,
2013-06-17 19:00:00,62.0,53.0,30.00,North,-999,-999.0,-999.0,71,-99.99,,,-99.99,,2013-06-17 18:00:00,
2013-06-17 19:42:00,62.0,53.0,30.00,North,-999,-999.0,-999.0,71,-99.99,,,-99.99,,2013-06-17 18:42:00,
2013-06-17 19:53:00,62.0,53.0,30.00,North,-999,-999.0,-999.0,71,-99.99,,,-99.99,,2013-06-17 18:53:00,
2013-06-17 20:00:00,62.0,53.0,30.01,North,-999,-999.0,-999.0,71,-99.99,,,-99.99,,2013-06-17 19:00:00,
2013-06-17 20:43:00,62.0,53.0,30.01,North,-999,-999.0,-999.0,71,-99.99,,,-99.99,,2013-06-17 19:43:00,
2013-06-17 20:53:00,62.0,53.0,30.01,North,-999,-999.0,-999.0,71,-99.99,,,-99.99,,2013-06-17 19:53:00,
2013-06-17 21:00:00,57.0,51.0,30.01,North,-999,-999.0,-999.0,79,-99.99,,,-99.99,,2013-06-17 20:00:00,
2013-06-17 21:43:00,57.0,51.0,30.01,North,-999,-999.0,-999.0,79,-99.99,,,-99.99,,2013-06-17 20:43:00,
2013-06-17 21:52:00,57.0,51.0,30.01,North,-999,-999.0,-999.0,79,-99.99,,,-99.99,,2013-06-17 20:52:00,
2013-06-17 22:00:00,53.0,53.0,30.03,North,-999,-999.0,-999.0,98,-99.99,,,-99.99,,2013-06-17 21:00:00,
2013-06-17 22:43:00,53.0,53.0,30.03,North,-999,-999.0,-999.0,98,-99.99,,,-99.99,,2013-06-17 21:43:00,
2013-06-17 22:52:00,53.0,53.0,30.03,North,-999,-999.0,-999.0,98,-99.99,,,-99.99,,2013-06-17 21:52:00,
2013-06-17 23:00:00,54.0,54.0,30.02,North,-999,-999.0,-999.0,100,-99.99,,,-99.99,,2013-06-17 22:00:00,
2013-06-17 23:43:00,54.0,54.0,30.02,North,-999,-999.0,-999.0,100,-99.99,,,-99.99,,2013-06-17 22:43:00,
2013-06-17 23:53:00,54.0,54.0,30.02,North,-999,-999.0,-999.0,100,-99.99,,,-99.99,,2013-06-17 22:53:00,